CAL35 KPHX-KLAX

Flight info

Callsign CAL35
Flight time 1h 0m
Altitude 34000
Route KEENS3 WLVRN ESTWD HLYWD1
Aircraft B77W/H-SDE1E2E3FGHIJ2J3J4J5M1RWXY/LB1D1

Departure

Time 2026-04-25 08:40
Airport Phoenix Sky Harbor International Airport (KPHX)

Arrival

Time 2026-04-25 09:40
Airport Los Angeles International Airport (KLAX)
Time Latitude Longitude Altitude Speed Heading
2026-04-25 08:12 33.43823 -111.99361 1141 ft 0 kts 232°
2026-04-25 08:30 33.43830 -111.99351 1141 ft 2 kts 232°
2026-04-25 08:30 33.43840 -111.99336 1140 ft 2 kts 231°
2026-04-25 08:31 33.43850 -111.99320 1139 ft 2 kts 231°
2026-04-25 08:31 33.43859 -111.99304 1140 ft 2 kts 265°
2026-04-25 08:31 33.43859 -111.99284 1139 ft 2 kts 278°
2026-04-25 08:31 33.43855 -111.99265 1139 ft 2 kts 287°
2026-04-25 08:32 33.43850 -111.99246 1139 ft 2 kts 298°
2026-04-25 08:32 33.43840 -111.99230 1140 ft 2 kts 340°
2026-04-25 08:32 33.43824 -111.99229 1140 ft 2 kts 359°
2026-04-25 08:32 33.43809 -111.99229 1140 ft 1 kts
2026-04-25 08:33 33.43806 -111.99229 1140 ft 0 kts
2026-04-25 08:36 33.43808 -111.99229 1140 ft 1 kts
2026-04-25 08:36 33.43823 -111.99229 1140 ft 3 kts
2026-04-25 08:37 33.43850 -111.99229 1139 ft 4 kts
2026-04-25 08:37 33.43879 -111.99229 1139 ft 4 kts 360°
2026-04-25 08:37 33.43908 -111.99229 1140 ft 4 kts 360°
2026-04-25 08:37 33.43937 -111.99229 1141 ft 4 kts 360°
2026-04-25 08:38 33.43967 -111.99229 1144 ft 4 kts
2026-04-25 08:38 33.43998 -111.99228 1142 ft 5 kts
2026-04-25 08:38 33.44041 -111.99228 1145 ft 7 kts
2026-04-25 08:38 33.44078 -111.99262 1146 ft 8 kts 289°
2026-04-25 08:39 33.44083 -111.99322 1146 ft 0 kts 270°
2026-04-25 08:39 33.44083 -111.99357 1144 ft 16 kts 270°
2026-04-25 08:39 33.44084 -111.99743 1143 ft 88 kts 270°
2026-04-25 08:40 33.44087 -112.00814 1138 ft 165 kts 270°
2026-04-25 08:40 33.44070 -112.02301 1699 ft 181 kts 269°
2026-04-25 08:40 33.43849 -112.03754 2624 ft 171 kts 249°
2026-04-25 08:40 33.43427 -112.05094 3462 ft 177 kts 250°
2026-04-25 08:41 33.42974 -112.06606 3771 ft 208 kts 250°
2026-04-25 08:41 33.42449 -112.08364 4098 ft 238 kts 250°
2026-04-25 08:41 33.41876 -112.10277 4824 ft 249 kts 250°
2026-04-25 08:41 33.41280 -112.12266 5625 ft 259 kts 250°
2026-04-25 08:42 33.40667 -112.14310 6434 ft 269 kts 250°
2026-04-25 08:42 33.40029 -112.16432 7350 ft 273 kts 249°
2026-04-25 08:42 33.39390 -112.18575 8354 ft 273 kts 251°
2026-04-25 08:42 33.39176 -112.20850 9169 ft 281 kts 275°
2026-04-25 08:43 33.39509 -112.23169 10006 ft 286 kts 278°
2026-04-25 08:43 33.39875 -112.25550 10696 ft 301 kts 278°
2026-04-25 08:43 33.40270 -112.28140 10969 ft 332 kts 278°
2026-04-25 08:43 33.40690 -112.30902 11681 ft 347 kts 278°
2026-04-25 08:44 33.41122 -112.33753 12865 ft 349 kts 278°
2026-04-25 08:44 33.41553 -112.36607 14142 ft 349 kts 277°
2026-04-25 08:44 33.41981 -112.39471 15343 ft 350 kts 277°
2026-04-25 08:44 33.42407 -112.42343 16485 ft 353 kts 277°
2026-04-25 08:45 33.42837 -112.45257 17591 ft 357 kts 277°
2026-04-25 08:45 33.43270 -112.48197 18622 ft 360 kts 277°
2026-04-25 08:45 33.43707 -112.51166 19552 ft 364 kts 278°
2026-04-25 08:45 33.44149 -112.54175 20469 ft 370 kts 278°
2026-04-25 08:46 33.44596 -112.57230 21373 ft 375 kts 278°
2026-04-25 08:46 33.45028 -112.60279 22261 ft 379 kts 276°
2026-04-25 08:46 33.45216 -112.63439 23120 ft 383 kts 270°
2026-04-25 08:46 33.45211 -112.66646 23881 ft 388 kts 269°
2026-04-25 08:47 33.45182 -112.69892 24666 ft 390 kts 269°
2026-04-25 08:47 33.45189 -112.73144 25501 ft 391 kts 270°
2026-04-25 08:47 33.45224 -112.76407 26328 ft 393 kts 270°
2026-04-25 08:47 33.45379 -112.79676 27065 ft 396 kts 277°
2026-04-25 08:48 33.46142 -112.82871 27732 ft 402 kts 289°
2026-04-25 08:48 33.47243 -112.85930 28297 ft 408 kts 289°
2026-04-25 08:48 33.48379 -112.89062 28933 ft 412 kts 289°
2026-04-25 08:48 33.49516 -112.92213 29709 ft 411 kts 289°
2026-04-25 08:49 33.50636 -112.95342 30605 ft 405 kts 289°
2026-04-25 08:49 33.51726 -112.98410 31576 ft 396 kts 288°
2026-04-25 08:49 33.52788 -113.01423 32510 ft 389 kts 288°
2026-04-25 08:49 33.53831 -113.04396 33299 ft 385 kts 287°
2026-04-25 08:50 33.54864 -113.07362 33763 ft 387 kts 287°
2026-04-25 08:50 33.56917 -113.13273 33779 ft 385 kts 287°
2026-04-25 08:51 33.58966 -113.19160 33793 ft 381 kts 287°
2026-04-25 08:51 33.61003 -113.25034 33816 ft 381 kts 287°
2026-04-25 08:52 33.63039 -113.30912 33834 ft 382 kts 287°
2026-04-25 08:52 33.65063 -113.36766 33848 ft 382 kts 287°
2026-04-25 08:53 33.67099 -113.42666 33860 ft 383 kts 287°
2026-04-25 08:53 33.69135 -113.48573 33869 ft 383 kts 287°
2026-04-25 08:54 33.71167 -113.54482 33868 ft 382 kts 287°
2026-04-25 08:54 33.73181 -113.60349 33857 ft 382 kts 287°
2026-04-25 08:55 33.75203 -113.66252 33856 ft 382 kts 287°
2026-04-25 08:55 33.77221 -113.72151 33846 ft 381 kts 287°
2026-04-25 08:56 33.79237 -113.78059 33815 ft 382 kts 287°
2026-04-25 08:56 33.81249 -113.83973 33792 ft 383 kts 287°
2026-04-25 08:57 33.83241 -113.89861 33772 ft 383 kts 286°
2026-04-25 08:57 33.85243 -113.95786 33769 ft 382 kts 286°
2026-04-25 08:58 33.87241 -114.01712 33761 ft 382 kts 286°
2026-04-25 08:58 33.89235 -114.07632 33759 ft 382 kts 286°
2026-04-25 08:59 33.91005 -114.13581 33755 ft 377 kts 279°
2026-04-25 08:59 33.92046 -114.19764 33756 ft 377 kts 277°
2026-04-25 09:00 33.93028 -114.25979 33755 ft 378 kts 277°
2026-04-25 09:00 33.94050 -114.32210 33755 ft 380 kts 277°
2026-04-25 09:01 33.95088 -114.38407 33751 ft 381 kts 277°
2026-04-25 09:01 33.96139 -114.44654 33750 ft 380 kts 277°
2026-04-25 09:02 33.97187 -114.50892 33749 ft 380 kts 277°
2026-04-25 09:02 33.98231 -114.57126 33744 ft 379 kts 277°
2026-04-25 09:03 33.99269 -114.63350 33753 ft 379 kts 277°
2026-04-25 09:03 34.00298 -114.69539 33751 ft 379 kts 277°
2026-04-25 09:04 34.01331 -114.75772 33751 ft 380 kts 277°
2026-04-25 09:04 34.02362 -114.82013 33746 ft 380 kts 277°
2026-04-25 09:05 34.03382 -114.88212 33750 ft 379 kts 277°
2026-04-25 09:05 34.04406 -114.94446 33756 ft 379 kts 277°
2026-04-25 09:06 34.05425 -115.00679 33765 ft 379 kts 277°
2026-04-25 09:06 34.06443 -115.06920 33758 ft 380 kts 277°
2026-04-25 09:07 34.07459 -115.13169 33763 ft 379 kts 277°
2026-04-25 09:07 34.08466 -115.19374 33764 ft 380 kts 277°
2026-04-25 09:08 34.09477 -115.25629 33767 ft 380 kts 277°
2026-04-25 09:08 34.10486 -115.31895 33767 ft 381 kts 277°
2026-04-25 09:09 34.11493 -115.38167 33778 ft 380 kts 276°
2026-04-25 09:09 34.12489 -115.44394 33770 ft 380 kts 276°
2026-04-25 09:10 34.13488 -115.50660 33790 ft 380 kts 276°
2026-04-25 09:10 34.14484 -115.56932 33790 ft 381 kts 276°
2026-04-25 09:11 34.15975 -115.66351 33800 ft 381 kts 276°
2026-04-25 09:11 34.16122 -115.72603 33809 ft 373 kts 261°
2026-04-25 09:12 34.15458 -115.78833 33817 ft 375 kts 262°
2026-04-25 09:12 34.14829 -115.85089 33833 ft 376 kts 262°
2026-04-25 09:13 34.14218 -115.91365 33855 ft 377 kts 262°
2026-04-25 09:13 34.13614 -115.97565 33872 ft 377 kts 262°
2026-04-25 09:14 34.13003 -116.03805 33439 ft 365 kts 262°
2026-04-25 09:14 34.12708 -116.06824 32908 ft 361 kts 262°
2026-04-25 09:14 34.12413 -116.09823 32384 ft 358 kts 262°
2026-04-25 09:15 34.12120 -116.12794 31873 ft 356 kts 262°
2026-04-25 09:15 34.11828 -116.15748 31370 ft 353 kts 262°
2026-04-25 09:15 34.11538 -116.18681 30880 ft 351 kts 262°
2026-04-25 09:15 34.11248 -116.21605 30387 ft 350 kts 262°
2026-04-25 09:16 34.10958 -116.24527 29917 ft 357 kts 262°
2026-04-25 09:16 34.10656 -116.27536 29398 ft 374 kts 262°
2026-04-25 09:16 34.10342 -116.30662 28866 ft 375 kts 262°
2026-04-25 09:16 34.10016 -116.33780 28311 ft 374 kts 261°
2026-04-25 09:17 34.09351 -116.39977 27264 ft 372 kts 261°
2026-04-25 09:17 34.09017 -116.43063 26728 ft 371 kts 261°
2026-04-25 09:17 34.08685 -116.46148 26229 ft 370 kts 261°
2026-04-25 09:18 34.08354 -116.49220 25754 ft 369 kts 261°
2026-04-25 09:18 34.08028 -116.52246 25322 ft 368 kts 261°
2026-04-25 09:18 34.07699 -116.55295 24890 ft 366 kts 261°
2026-04-25 09:18 34.07370 -116.58338 24465 ft 365 kts 261°
2026-04-25 09:19 34.07061 -116.61372 24052 ft 364 kts 262°
2026-04-25 09:19 34.06781 -116.64396 23652 ft 362 kts 262°
2026-04-25 09:19 34.06508 -116.67418 23226 ft 362 kts 262°
2026-04-25 09:19 34.06234 -116.70429 22741 ft 361 kts 262°
2026-04-25 09:20 34.05958 -116.73439 22282 ft 361 kts 262°
2026-04-25 09:20 34.05679 -116.76441 21811 ft 360 kts 262°
2026-04-25 09:20 34.05400 -116.79436 21373 ft 358 kts 262°
2026-04-25 09:20 34.05126 -116.82367 20943 ft 355 kts 262°
2026-04-25 09:21 34.04849 -116.85314 20522 ft 352 kts 262°
2026-04-25 09:21 34.04572 -116.88232 20095 ft 349 kts 262°
2026-04-25 09:21 34.04259 -116.91117 19678 ft 346 kts 260°
2026-04-25 09:21 34.03879 -116.93970 19269 ft 343 kts 259°
2026-04-25 09:22 34.03495 -116.96796 18850 ft 340 kts 260°
2026-04-25 09:22 34.03124 -116.99597 18453 ft 337 kts 260°
2026-04-25 09:22 34.02759 -117.02382 18021 ft 335 kts 260°
2026-04-25 09:22 34.02416 -117.05110 17571 ft 332 kts 261°
2026-04-25 09:23 34.02093 -117.07849 17189 ft 328 kts 261°
2026-04-25 09:23 34.01778 -117.10557 16824 ft 324 kts 261°
2026-04-25 09:23 34.01466 -117.13213 16523 ft 319 kts 261°
2026-04-25 09:23 34.01155 -117.15853 16227 ft 316 kts 261°
2026-04-25 09:24 34.00842 -117.18484 15938 ft 319 kts 261°
2026-04-25 09:24 34.00525 -117.21136 15653 ft 321 kts 261°
2026-04-25 09:24 34.00206 -117.23805 15362 ft 321 kts 261°
2026-04-25 09:24 33.99888 -117.26461 15067 ft 320 kts 262°
2026-04-25 09:25 33.99576 -117.29063 14796 ft 315 kts 261°
2026-04-25 09:25 33.99267 -117.31645 14489 ft 309 kts 262°
2026-04-25 09:25 33.98967 -117.34188 14221 ft 304 kts 262°
2026-04-25 09:25 33.98673 -117.36695 13935 ft 301 kts 262°
2026-04-25 09:26 33.98383 -117.39176 13639 ft 298 kts 262°
2026-04-25 09:26 33.98092 -117.41643 13322 ft 296 kts 262°
2026-04-25 09:26 33.97804 -117.44087 13009 ft 294 kts 262°
2026-04-25 09:26 33.97517 -117.46516 12705 ft 292 kts 262°
2026-04-25 09:27 33.97304 -117.48901 12391 ft 290 kts 270°
2026-04-25 09:27 33.97594 -117.51308 12094 ft 290 kts 281°
2026-04-25 09:27 33.98043 -117.53653 11810 ft 285 kts 281°
2026-04-25 09:27 33.98480 -117.55969 11519 ft 282 kts 281°
2026-04-25 09:28 33.98903 -117.58260 11208 ft 279 kts 281°
2026-04-25 09:28 33.99312 -117.60528 10919 ft 276 kts 281°
2026-04-25 09:28 33.99712 -117.62776 10620 ft 273 kts 281°
2026-04-25 09:28 33.99974 -117.64251 10429 ft 271 kts 281°
2026-04-25 09:29 34.00495 -117.67200 10058 ft 267 kts 280°
2026-04-25 09:29 34.00658 -117.69347 9726 ft 260 kts 266°
2026-04-25 09:29 34.00466 -117.71504 9443 ft 258 kts 263°
2026-04-25 09:29 34.00228 -117.73635 9127 ft 257 kts 263°
2026-04-25 09:30 33.99994 -117.75759 8805 ft 255 kts 263°
2026-04-25 09:30 33.99844 -117.77161 8599 ft 254 kts 263°
2026-04-25 09:30 33.99555 -117.79976 8194 ft 252 kts 263°
2026-04-25 09:30 33.99416 -117.81361 7997 ft 251 kts 263°
2026-04-25 09:31 33.99210 -117.83442 7720 ft 248 kts 263°
2026-04-25 09:31 33.99012 -117.85473 7466 ft 242 kts 264°
2026-04-25 09:31 33.98753 -117.88129 7078 ft 239 kts 264°
2026-04-25 09:31 33.98561 -117.90099 6823 ft 234 kts 264°
2026-04-25 09:32 33.98432 -117.91408 6655 ft 232 kts 264°
2026-04-25 09:32 33.98246 -117.93296 6421 ft 228 kts 264°
2026-04-25 09:32 33.98061 -117.95177 6181 ft 224 kts 264°
2026-04-25 09:32 33.97879 -117.97020 5987 ft 219 kts 264°
2026-04-25 09:33 33.97701 -117.98824 5774 ft 215 kts 264°
2026-04-25 09:33 33.97527 -118.00592 5588 ft 209 kts 264°
2026-04-25 09:33 33.97297 -118.02907 5362 ft 208 kts 263°
2026-04-25 09:33 33.97140 -118.04603 5140 ft 199 kts 264°
2026-04-25 09:34 33.97045 -118.05639 4998 ft 194 kts 264°
2026-04-25 09:34 33.96855 -118.07605 4720 ft 188 kts 263°
2026-04-25 09:34 33.96751 -118.08646 4599 ft 190 kts 263°
2026-04-25 09:34 33.96538 -118.10754 4320 ft 190 kts 263°
2026-04-25 09:35 33.96432 -118.11799 4183 ft 190 kts 263°
2026-04-25 09:35 33.96271 -118.13380 3978 ft 190 kts 263°
2026-04-25 09:35 33.96110 -118.14966 3779 ft 191 kts 262°
2026-04-25 09:35 33.95905 -118.16976 3593 ft 175 kts 262°
2026-04-25 09:36 33.95806 -118.17948 3445 ft 171 kts 262°
2026-04-25 09:36 33.95661 -118.19369 3262 ft 170 kts 262°
2026-04-25 09:36 33.95516 -118.20790 3027 ft 172 kts 262°
2026-04-25 09:36 33.95374 -118.22194 2795 ft 171 kts 261°
2026-04-25 09:37 33.95233 -118.23583 2549 ft 160 kts 261°
2026-04-25 09:37 33.95103 -118.24861 2335 ft 148 kts 261°
2026-04-25 09:37 33.94980 -118.26058 2143 ft 142 kts 261°
2026-04-25 09:37 33.94860 -118.27240 1973 ft 143 kts 261°
2026-04-25 09:38 33.94739 -118.28429 1784 ft 142 kts 261°
2026-04-25 09:38 33.94619 -118.29605 1585 ft 141 kts 261°
2026-04-25 09:38 33.94502 -118.30755 1398 ft 140 kts 261°
2026-04-25 09:38 33.94384 -118.31916 1203 ft 139 kts 262°
2026-04-25 09:39 33.94266 -118.33070 1012 ft 138 kts 262°
2026-04-25 09:39 33.94149 -118.34217 819 ft 138 kts 262°
2026-04-25 09:39 33.94033 -118.35360 635 ft 138 kts 262°
2026-04-25 09:40 33.93797 -118.37637 271 ft 136 kts 261°
2026-04-25 09:40 33.93690 -118.38771 146 ft 136 kts 259°
2026-04-25 09:40 33.93581 -118.39780 127 ft 102 kts 263°
2026-04-25 09:40 33.93522 -118.40396 125 ft 49 kts 274°
2026-04-25 09:41 33.93592 -118.40635 126 ft 21 kts 287°
2026-04-25 09:41 33.93595 -118.40736 127 ft 6 kts 263°
2026-04-25 09:41 33.93591 -118.40788 130 ft 7 kts 270°
2026-04-25 09:41 33.93603 -118.40846 125 ft 8 kts 294°
2026-04-25 09:42 33.93642 -118.40888 126 ft 8 kts 338°
2026-04-25 09:42 33.93701 -118.40901 128 ft 9 kts 352°
2026-04-25 09:42 33.93768 -118.40910 128 ft 10 kts 354°
2026-04-25 09:42 33.93828 -118.40919 128 ft 7 kts 355°
2026-04-25 09:43 33.93866 -118.40881 126 ft 8 kts 65°
2026-04-25 09:43 33.93891 -118.40822 125 ft 8 kts 34°
2026-04-25 09:43 33.93949 -118.40812 128 ft 9 kts 355°
2026-04-25 09:43 33.93997 -118.40818 128 ft 5 kts 352°
2026-04-25 09:44 33.94027 -118.40845 127 ft 6 kts 290°
2026-04-25 09:44 33.94028 -118.40887 128 ft 4 kts 264°
2026-04-25 09:44 33.94026 -118.40909 125 ft 1 kts 263°
2026-04-25 09:44 33.94025 -118.40921 126 ft 0 kts 263°
2026-04-25 09:45 33.94024 -118.40927 127 ft 0 kts 263°